Regional Weather Roundup
Issued by NWS Cleveland, OH

Home | Current Version | Previous Version | Graphics & Text | Print | Product List | Glossary On
Versions: 1 2 3 4 5 6 7 8 9 10 11 12 13 14 15 16 17 18 19 20 21 22 23 24 25 26 27 28 29 30 31 32 33 34 35 36 37 38 39 40 41 42 43 44 45 46 47 48 49 50
000
ASUS41 KCLE 041010
RWRCLE
OHIO REGIONAL WEATHER ROUNDUP
NATIONAL WEATHER SERVICE WILMINGTON, OH
600 AM EDT FRI SEP 04 2015

NOTE: "FAIR" INDICATES FEW OR NO CLOUDS BELOW 12,000 FEET WITH NO
SIGNIFICANT WEATHER AND/OR OBSTRUCTIONS TO VISIBILITY.

OHZ001>008-015>018-024>027-034-035-043-044-041100-
   NORTHWEST OHIO

CITY           SKY/WX    TMP DP  RH WIND       PRES   REMARKS
DEFIANCE       PTCLDY    71  67  87 CALM      29.96R
FINDLAY        PTCLDY    69  65  86 SE12      29.97F
TOLEDO EXPRESS MOCLDY    67  64  90 S5        29.96S
TOLEDO EXEC    MOCLDY    68  64  87 SE6       29.97S
LIMA           PTCLDY    70  67  90 E5        29.98S
$$

OHZ009>014-019>023-028>033-038-089-041100-
   NORTHEAST OHIO

CITY           SKY/WX    TMP DP  RH WIND       PRES   REMARKS
CLE-HOPKINS    TSTM      68  64  87 S6        30.01F
CLE-LAKEFRONT  CLOUDY    70  65  84 S13       29.98R
CUY CO. ARPT   NOT AVBL
LORAIN-ELYRIA  LGT RAIN  67  64  90 S9        30.00S
ASHTABULA      MOCLDY    66  65  96 CALM      30.03S FOG
AKRON-CANTON   CLOUDY    67  64  90 CALM      30.04S FOG
WOOSTER        RAIN      66  64  93 S7        30.04S FOG
MANSFIELD      CLOUDY    66  66 100 SE10      30.02S
YOUNGSTOWN     LGT RAIN  67  65  93 CALM      30.04R FOG
$$

OHZ042-051>053-060>062-070>072-077>081-041100-
  SOUTHWEST OHIO

CITY           SKY/WX    TMP DP  RH WIND       PRES   REMARKS
CINC-COVINGTON PTCLDY    67  65  93 S3        30.02R FOG
CINC-LUNKEN    PTCLDY    67  67 100 CALM      30.01S FOG
HAMILTON       PTCLDY    68  66  93 CALM      30.01R FOG
DAYTON         PTCLDY    71  66  84 SW6       30.01R
WRIGHT-PAT AFB PTCLDY    69  68  95 E2        30.00R
DAYTON GENERAL PTCLDY    71  66  84 CALM      30.01R
WILMINGTON     PTCLDY    68  66  93 CALM      30.01R FOG
$$

OHZ036-037-039>041-045>050-054>059-063>069-073>076-082>088-041100-
  CENTRAL AND SOUTHEAST OHIO

CITY           SKY/WX    TMP DP  RH WIND       PRES   REMARKS
COLUMBUS       MOCLDY    69  65  86 NE6       30.02R
OSU AIRPORT    MOCLDY    68  65  90 E6        30.02R
BOLTON FIELD   MOCLDY    68  65  92 E3        30.02S
RICKENBACK AFB MOCLDY    68  64  89 CALM      30.01S
NEWARK         CLOUDY    69  66  90 E8        30.03S THUNDER
MARION         CLOUDY    68  64  87 SE6       30.02S
LANCASTER      MOCLDY    68  65  90 SE3       30.03R
ZANESVILLE     HVY RAIN  68  65  90 NE8G22    30.07R FOG
NEW PHILLY     RAIN      67  66  97 SE5       30.05F FOG
$$


USA.gov is the U.S. government's official web portal to all federal, state and local government web resources and services.